Location: Unspecified
(0.0000°N, 0.0000°E)
Time: 16:50:55
(UTC+00:00)

Vanguard 2 Rocket - Visible Passes

Search period start: 27 August 2016 00:00
Search period end: 06 September 2016 00:00
Orbit: 556 x 3327 km, 32.9° (Epoch: 27 August)

Date Brightness Start Highest point End Pass type
(mag) Time Alt. Az. Time Alt. Az. Time Alt. Az.
27 Aug 10.1 02:00:31 21° SE 02:00:31 21° SE 02:03:16 10° SE visible
27 Aug 9.5 04:06:22 27° SW 04:06:22 27° SW 04:14:58 10° SSE visible
27 Aug 10.6 19:56:37 10° NNW 20:05:54 17° NNE 20:15:06 12° NE visible
27 Aug 10.3 22:10:29 10° NNW 22:20:52 33° N 22:20:52 33° N visible
28 Aug 10.8 01:04:46 - SE 01:04:46 - SE 00:26:38 10° NW visible
28 Aug 9.6 03:10:37 31° S 03:10:37 31° S 03:16:46 10° SSE visible
28 Aug 10.6 18:57:58 10° N 19:03:19 13° NNE 19:09:31 10° NE visible
28 Aug 10.2 21:10:37 10° NNW 21:24:15 30° NNE 21:24:15 30° NNE visible
28 Aug 10.6 23:25:27 10° NW 23:30:01 22° NW 23:30:01 22° NW visible
29 Aug 10.1 02:14:46 22° SSE 02:14:46 22° SSE 02:17:56 10° SE visible
29 Aug 9.9 04:20:36 18° SW 04:21:18 18° SW 04:28:44 10° S visible
29 Aug 10.4 20:11:18 10° NNW 20:22:39 22° NNE 20:27:42 20° NE visible
29 Aug 10.2 22:24:54 10° NW 22:33:28 34° NNW 22:33:28 34° NNW visible
30 Aug10.701:18:50SE01:18:50SE00:39:15WNWvisible
30 Aug 9.8 03:24:40 25° S 03:24:40 25° S 03:30:58 10° SSE visible
30 Aug 10.5 19:12:44 10° N 19:20:21 16° NNE 19:29:36 10° NE visible
30 Aug 10.0 21:24:58 10° NNW 21:36:59 38° NNE 21:36:59 38° NNE visible
30 Aug 10.8 23:40:15 10° NW 23:42:46 17° NW 23:42:46 17° NW visible
31 Aug 10.1 02:28:40 22° SSE 02:28:40 22° SSE 02:32:21 10° SSE visible
31 Aug 10.1 04:34:29 12° SW 04:37:20 12° SSW 04:41:52 10° S visible
31 Aug 10.5 18:17:15 10° NNE 18:18:17 10° NNE 18:19:21 10° NNE visible
31 Aug 10.1 20:25:39 10° NNW 20:38:44 30° NNE 20:40:35 30° NE visible
31 Aug 10.3 22:39:28 10° NW 22:46:22 32° NW 22:46:22 32° NW visible
01 Sep 10.6 01:32:36 12° SE 01:32:36 12° SE 01:33:08 10° SE visible
01 Sep 10.0 03:38:25 20° SSW 03:38:25 20° SSW 03:44:59 10° SSE visible
01 Sep 10.2 19:26:59 10° NNW 19:36:49 21° NNE 19:44:14 16° ENE visible
01 Sep 9.8 21:39:24 10° NW 21:50:01 44° N 21:50:01 44° N visible
01 Sep 11.0 23:55:27 10° WNW 00:36:29 - SE 23:55:49 11° WNW visible
02 Sep 10.2 02:42:17 21° S 02:42:17 21° S 02:46:37 10° SSE visible
02 Sep 10.3 18:29:27 10° N 18:35:05 14° NNE 18:41:50 10° NE visible
02 Sep 9.8 20:39:57 10° NNW 20:53:45 41° NNE 20:53:45 41° NNE visible
02 Sep 10.4 22:54:19 10° NW 22:59:33 27° NW 22:59:33 27° NW visible
03 Sep 10.6 01:46:07 14° SSE 01:46:07 14° SSE 01:47:33 10° SSE visible
03 Sep 10.2 03:51:55 15° SSW 03:52:13 15° SSW 03:58:55 10° S visible
03 Sep 9.9 19:41:07 10° NNW 19:52:37 29° NE 19:57:33 26° ENE visible
03 Sep 9.8 21:53:59 10° NW 22:03:22 45° NNW 22:03:22 45° NNW visible
04 Sep11.000:49:54SE00:49:54SE00:09:10WNWvisible
04 Sep 10.3 02:55:42 19° S 02:55:42 19° S 03:00:52 10° SSE visible
04 Sep 10.1 18:43:02 10° N 18:51:16 19° NNE 19:01:26 11° ENE visible
04 Sep 9.5 20:54:21 10° NW 21:07:15 54° NNE 21:07:15 54° NNE visible
04 Sep 10.6 23:09:34 10° WNW 23:13:04 20° WNW 23:13:04 20° WNW visible
05 Sep 10.5 01:59:26 16° SSE 01:59:26 16° SSE 02:01:53 10° SSE visible
05 Sep 10.4 04:05:14 10° SSW 04:09:07 11° SSW 04:12:59 10° S visible
05 Sep 9.6 19:55:19 10° NNW 20:07:53 41° NE 20:11:13 38° ENE visible
05 Sep 9.9 22:08:53 10° NW 22:17:03 41° NW 22:17:03 41° NW visible
